PIESAT-2 09

导读 | 豆包AI

PIESAT-2 09是中国于2024年12月16日发射的低轨合成孔径雷达(SAR)遥感卫星,归属航天宏图女娲星座。它搭载高分辨率SAR载荷,支持星上智能处理,具备全天时全天候高分辨率成像能力,可服务于国土资源勘探、地震监测、防灾减灾等领域,重点支撑水利、应急业务及重大灾害应急响应。

Basic Information
目录编号:
62333
目录名称:
PIESAT-2 09
国际标识:
2024-241A
轨道中心:
EARTH
卫星名称:
PIESAT-2 09
卫星全名:
PIESAT-2 09
卫星状态:
在轨 (已飞行525 天)
发射日期:
2024-12-16 UTC
国别 :
中国 (CN)
星等 :
--
Orbit Information
数据来源 国际轨道数据
星历时间: 2026-05-24T11:56:15+0800
22小时前
查看轨道信息
半长轴: 6901.999km
偏心率: 0.0002339
轨道倾角: 97.531°
近地点辐角 88.263°
升交点赤经 92.088°
平近点角 271.887°
近地点: 522.247km
远地点: 525.477km
周期: 95.109分钟
每日圈数: 15.14051
Detailed Information
使用方式:
暂无
2D Orbit Map
3D Orbit Map
Orbit Altitude Analysis Chart
Orbit Inclination Analysis Chart
Orbit Comprehensive Analysis Chart
View Comprehensive Chart